"Period start","avg(HW err(1)/warn(2) (#))","avg(Visibility (m))","avg(Weather code (#))","avg(Precip intensity (mm/h))","min(HW err(1)/warn(2) (#))","max(HW err(1)/warn(2) (#))","std(HW err(1)/warn(2) (#))","med(HW err(1)/warn(2) (#))","min(Visibility (m))","max(Visibility (m))","std(Visibility (m))","med(Visibility (m))","min(Weather code (#))","max(Weather code (#))","std(Weather code (#))","med(Weather code (#))","min(Precip intensity (mm/h))","max(Precip intensity (mm/h))","std(Precip intensity (mm/h))","med(Precip intensity (mm/h))"
2014-05-31 00:00:00,2,46497,0,0.00,2,2,0,2,42066,50000,3211,46508,0,0,0,0,0.00,0.00,0.00,0.00
2014-05-31 00:10:00,2,49452,0,0.00,2,2,0,2,47012,50000,1086,50000,0,0,0,0,0.00,0.00,0.00,0.00
2014-05-31 00:20:00,2,49268,0,0.00,2,2,0,2,45924,50000,1346,50000,0,0,0,0,0.00,0.00,0.00,0.00
2014-05-31 00:30:00,2,45095,0,0.00,2,2,0,2,40729,49109,2363,45185,0,0,0,0,0.00,0.00,0.00,0.00
2014-05-31 00:40:00,2,44892,0,0.00,2,2,0,2,35235,50000,5921,48017,0,0,0,0,0.00,0.00,0.00,0.00
2014-05-31 00:50:00,2,45468,0,0.00,2,2,0,2,38704,50000,4301,45590,0,0,0,0,0.00,0.00,0.00,0.00
2014-05-31 01:00:00,2,47709,0,0.00,2,2,0,2,41016,50000,3344,49912,0,0,0,0,0.00,0.00,0.00,0.00
2014-05-31 01:10:00,2,49452,0,0.00,2,2,0,2,46142,50000,1204,50000,0,0,0,0,0.00,0.00,0.00,0.00
2014-05-31 01:20:00,2,48486,0,0.00,2,2,0,2,45289,50000,1544,48571,0,0,0,0,0.00,0.00,0.00,0.00
2014-05-31 01:30:00,2,48300,0,0.00,2,2,0,2,42936,50000,2288,49442,0,0,0,0,0.00,0.00,0.00,0.00
2014-05-31 01:40:00,2,47315,0,0.00,2,2,0,2,42043,50000,2703,47212,0,0,0,0,0.00,0.00,0.00,0.00
2014-05-31 01:50:00,2,49443,0,0.00,2,2,0,2,44431,50000,1671,50000,0,0,0,0,0.00,0.00,0.00,0.00
2014-05-31 02:00:00,2,49027,0,0.00,2,2,0,2,44208,50000,1950,50000,0,0,0,0,0.00,0.00,0.00,0.00
2014-05-31 02:10:00,2,49838,0,0.00,2,2,0,2,49044,50000,331,50000,0,0,0,0,0.00,0.00,0.00,0.00
2014-05-31 02:20:00,2,47826,0,0.00,2,2,0,2,37959,50000,3601,50000,0,0,0,0,0.00,0.00,0.00,0.00
2014-05-31 02:30:00,2,49348,0,0.00,2,2,0,2,48141,50000,772,49910,0,0,0,0,0.00,0.00,0.00,0.00
2014-05-31 02:40:00,2,49193,0,0.00,2,2,0,2,44694,50000,1570,50000,0,0,0,0,0.00,0.00,0.00,0.00
2014-05-31 02:50:00,2,49930,0,0.00,2,2,0,2,49301,50000,210,50000,0,0,0,0,0.00,0.00,0.00,0.00
2014-05-31 03:00:00,2,49483,0,0.00,2,2,0,2,47322,50000,1035,50000,0,0,0,0,0.00,0.00,0.00,0.00
2014-05-31 03:10:00,2,49758,0,0.00,2,2,0,2,47583,50000,725,50000,0,0,0,0,0.00,0.00,0.00,0.00
2014-05-31 03:20:00,2,49950,0,0.00,2,2,0,2,49577,50000,126,50000,0,0,0,0,0.00,0.00,0.00,0.00
2014-05-31 03:30:00,2,47504,0,0.00,2,2,0,2,40367,50000,3450,49967,0,0,0,0,0.00,0.00,0.00,0.00
2014-05-31 03:40:00,2,49594,0,0.00,2,2,0,2,46366,50000,1081,50000,0,0,0,0,0.00,0.00,0.00,0.00
2014-05-31 03:50:00,2,48529,0,0.00,2,2,0,2,40729,50000,2835,50000,0,0,0,0,0.00,0.00,0.00,0.00
2014-05-31 04:00:00,2,48377,0,0.00,2,2,0,2,41887,50000,2500,49804,0,0,0,0,0.00,0.00,0.00,0.00
2014-05-31 04:10:00,2,49692,0,0.00,2,2,0,2,48755,50000,404,49896,0,0,0,0,0.00,0.00,0.00,0.00
2014-05-31 04:20:00,2,49925,0,0.00,2,2,0,2,49420,50000,172,50000,0,0,0,0,0.00,0.00,0.00,0.00
2014-05-31 04:30:00,2,49869,0,0.00,2,2,0,2,49163,50000,274,50000,0,0,0,0,0.00,0.00,0.00,0.00
2014-05-31 04:40:00,2,47824,0,0.00,2,2,0,2,41562,50000,3395,50000,0,0,0,0,0.00,0.00,0.00,0.00
2014-05-31 04:50:00,2,49185,0,0.00,2,2,0,2,47182,50000,1165,50000,0,0,0,0,0.00,0.00,0.00,0.00
2014-05-31 05:00:00,2,48345,0,0.00,2,2,0,2,41716,50000,2747,50000,0,0,0,0,0.00,0.00,0.00,0.00
2014-05-31 05:10:00,2,49072,0,0.00,2,2,0,2,44119,50000,1790,50000,0,0,0,0,0.00,0.00,0.00,0.00
2014-05-31 05:20:00,2,48928,0,0.00,2,2,0,2,44283,50000,1860,50000,0,0,0,0,0.00,0.00,0.00,0.00
2014-05-31 05:30:00,2,49568,0,0.00,2,2,0,2,45680,50000,1296,50000,0,0,0,0,0.00,0.00,0.00,0.00
2014-05-31 05:40:00,2,48908,0,0.00,2,2,0,2,44776,50000,1895,50000,0,0,0,0,0.00,0.00,0.00,0.00
2014-05-31 05:50:00,2,47577,0,0.00,2,2,0,2,37036,50000,4685,50000,0,0,0,0,0.00,0.00,0.00,0.00
2014-05-31 06:00:00,2,46584,0,0.00,2,2,0,2,35259,50000,4198,48267,0,0,0,0,0.00,0.00,0.00,0.00
2014-05-31 06:10:00,2,49382,0,0.00,2,2,0,2,47210,50000,963,50000,0,0,0,0,0.00,0.00,0.00,0.00
2014-05-31 06:20:00,2,48365,0,0.00,2,2,0,2,45494,50000,1612,48946,0,0,0,0,0.00,0.00,0.00,0.00
2014-05-31 06:30:00,2,47483,0,0.00,2,2,0,2,42330,50000,3117,49243,0,0,0,0,0.00,0.00,0.00,0.00
2014-05-31 06:40:00,2,48812,0,0.00,2,2,0,2,44406,50000,1936,50000,0,0,0,0,0.00,0.00,0.00,0.00
2014-05-31 06:50:00,2,48174,0,0.00,2,2,0,2,40923,50000,3386,50000,0,0,0,0,0.00,0.00,0.00,0.00
2014-05-31 07:00:00,2,49725,0,0.00,2,2,0,2,48197,50000,582,50000,0,0,0,0,0.00,0.00,0.00,0.00
2014-05-31 07:10:00,2,46511,0,0.00,2,2,0,2,34389,50000,4925,49060,0,0,0,0,0.00,0.00,0.00,0.00
2014-05-31 07:20:00,2,48196,0,0.00,2,2,0,2,42160,50000,2547,49485,0,0,0,0,0.00,0.00,0.00,0.00
2014-05-31 07:30:00,2,46503,0,0.00,2,2,0,2,38852,50000,4301,49138,0,0,0,0,0.00,0.00,0.00,0.00
2014-05-31 07:40:00,2,49309,0,0.00,2,2,0,2,44286,50000,1699,50000,0,0,0,0,0.00,0.00,0.00,0.00
2014-05-31 07:50:00,2,47572,0,0.00,2,2,0,2,44614,50000,2083,46942,0,0,0,0,0.00,0.00,0.00,0.00
2014-05-31 08:00:00,2,47533,0,0.00,2,2,0,2,40798,50000,2877,48217,0,0,0,0,0.00,0.00,0.00,0.00
2014-05-31 08:10:00,2,48576,0,0.00,2,2,0,2,43998,50000,2166,50000,0,0,0,0,0.00,0.00,0.00,0.00
2014-05-31 08:20:00,2,49363,0,0.00,2,2,0,2,46940,50000,1081,50000,0,0,0,0,0.00,0.00,0.00,0.00
2014-05-31 08:30:00,2,48405,0,0.00,2,2,0,2,45106,50000,1936,49868,0,0,0,0,0.00,0.00,0.00,0.00
2014-05-31 08:40:00,2,47212,0,0.00,2,2,0,2,39478,50000,3932,49834,0,0,0,0,0.00,0.00,0.00,0.00
2014-05-31 08:50:00,2,44570,0,0.00,2,2,0,2,39934,50000,3060,44416,0,0,0,0,0.00,0.00,0.00,0.00
2014-05-31 09:00:00,2,48232,0,0.00,2,2,0,2,43038,50000,2262,49524,0,0,0,0,0.00,0.00,0.00,0.00
2014-05-31 09:10:00,2,47705,0,0.00,2,2,0,2,39274,50000,3596,49643,0,0,0,0,0.00,0.00,0.00,0.00
2014-05-31 09:20:00,2,50000,0,0.00,2,2,0,2,50000,50000,0,50000,0,0,0,0,0.00,0.00,0.00,0.00
2014-05-31 09:30:00,2,49402,0,0.00,2,2,0,2,45195,50000,1445,50000,0,0,0,0,0.00,0.00,0.00,0.00
2014-05-31 09:40:00,2,49216,0,0.00,2,2,0,2,45170,50000,1620,50000,0,0,0,0,0.00,0.00,0.00,0.00
2014-05-31 09:50:00,2,49970,0,0.00,2,2,0,2,49700,50000,90,50000,0,0,0,0,0.00,0.00,0.00,0.00
2014-05-31 10:00:00,2,48946,0,0.00,2,2,0,2,44994,50000,1743,50000,0,0,0,0,0.00,0.00,0.00,0.00
2014-05-31 10:10:00,2,50000,0,0.00,2,2,0,2,50000,50000,0,50000,0,0,0,0,0.00,0.00,0.00,0.00
2014-05-31 10:20:00,2,49386,0,0.00,2,2,0,2,43899,50000,1829,50000,0,0,0,0,0.00,0.00,0.00,0.00
2014-05-31 10:30:00,2,49965,0,0.00,2,2,0,2,49646,50000,106,50000,0,0,0,0,0.00,0.00,0.00,0.00
2014-05-31 10:40:00,2,48161,0,0.00,2,2,0,2,41102,50000,3218,50000,0,0,0,0,0.00,0.00,0.00,0.00
2014-05-31 10:50:00,2,30695,0,0.00,2,2,0,2,7529,47036,14307,35452,0,0,0,0,0.00,0.00,0.00,0.00
2014-05-31 11:00:00,2,33604,0,0.00,2,2,0,2,11565,44969,9840,34764,0,0,0,0,0.00,0.00,0.00,0.00
2014-05-31 11:10:00,2,34717,0,0.00,2,2,0,2,15464,50000,11188,36107,0,0,0,0,0.00,0.00,0.00,0.00
2014-05-31 11:20:00,2,27573,0,0.00,2,2,0,2,12670,43796,9542,27456,0,0,0,0,0.00,0.00,0.00,0.00
2014-05-31 11:30:00,2,31567,0,0.00,2,2,0,2,14775,42041,9222,34660,0,0,0,0,0.00,0.00,0.00,0.00
2014-05-31 11:40:00,2,42766,0,0.00,2,2,0,2,29023,49441,5608,44289,0,0,0,0,0.00,0.00,0.00,0.00
2014-05-31 11:50:00,2,47822,0,0.00,2,2,0,2,41591,50000,2854,48884,0,0,0,0,0.00,0.00,0.00,0.00
2014-05-31 12:00:00,2,42568,0,0.00,2,2,0,2,29966,50000,6188,43866,0,0,0,0,0.00,0.00,0.00,0.00
2014-05-31 12:10:00,2,44006,0,0.00,2,2,0,2,35634,50000,5237,46326,0,0,0,0,0.00,0.00,0.00,0.00
2014-05-31 12:20:00,2,49228,0,0.00,2,2,0,2,47381,50000,929,49696,0,0,0,0,0.00,0.00,0.00,0.00
2014-05-31 12:30:00,2,44488,0,0.00,2,2,0,2,39246,50000,3150,44894,0,0,0,0,0.00,0.00,0.00,0.00
2014-05-31 12:40:00,2,41530,0,0.00,2,2,0,2,32005,47320,5049,42818,0,0,0,0,0.00,0.00,0.00,0.00
2014-05-31 12:50:00,2,33941,0,0.00,2,2,0,2,25023,46902,7916,29921,0,0,0,0,0.00,0.00,0.00,0.00
2014-05-31 13:00:00,2,29164,0,0.00,2,2,0,2,23684,38665,4241,27150,0,0,0,0,0.00,0.00,0.00,0.00
2014-05-31 13:10:00,2,33861,0,0.00,2,2,0,2,21782,43890,8141,32860,0,0,0,0,0.00,0.00,0.00,0.00
2014-05-31 13:20:00,2,46554,0,0.00,2,2,0,2,35700,50000,4966,49638,0,0,0,0,0.00,0.00,0.00,0.00
2014-05-31 13:30:00,2,43265,0,0.00,2,2,0,2,34283,50000,4742,43206,0,0,0,0,0.00,0.00,0.00,0.00
2014-05-31 13:40:00,2,45139,0,0.00,2,2,0,2,35826,50000,5298,46995,0,0,0,0,0.00,0.00,0.00,0.00
2014-05-31 13:50:00,2,32872,0,0.00,2,2,0,2,19073,46411,8908,33844,0,0,0,0,0.00,0.00,0.00,0.00
2014-05-31 14:00:00,2,17491,0,0.00,2,2,0,2,7451,39466,11219,12126,0,0,0,0,0.00,0.00,0.00,0.00
2014-05-31 14:10:00,2,14886,0,0.00,2,2,0,2,6191,26800,6650,13096,0,0,0,0,0.00,0.00,0.00,0.00
2014-05-31 14:20:00,2,10771,9,0.00,2,2,0,2,2481,22715,5458,9674,0,10,3,10,0.00,0.00,0.00,0.00
2014-05-31 14:30:00,2,14455,4,0.00,2,2,0,2,4614,30743,9665,8842,0,10,5,0,0.00,0.00,0.00,0.00
2014-05-31 14:40:00,2,3493,10,0.00,2,2,0,2,1295,8576,2491,2459,10,10,0,10,0.00,0.00,0.00,0.00
2014-05-31 14:50:00,2,7603,10,0.00,2,2,0,2,4237,10204,1782,7906,10,10,0,10,0.00,0.00,0.00,0.00
2014-05-31 15:00:00,2,1631,13,0.00,2,2,0,2,530,4542,1209,1150,10,40,9,10,0.00,0.00,0.00,0.00
2014-05-31 15:10:00,2,1232,49,0.12,2,2,0,2,676,3171,796,896,41,67,12,41,0.00,0.20,0.07,0.15
2014-05-31 15:20:00,2,1603,54,0.08,2,2,0,2,832,3219,802,1373,20,67,20,67,0.00,0.20,0.07,0.10
2014-05-31 15:30:00,2,2467,20,0.00,2,2,0,2,700,3832,1145,2726,20,20,0,20,0.00,0.00,0.00,0.00
2014-05-31 15:40:00,2,369,58,0.20,2,2,0,2,311,449,49,353,20,77,24,77,0.00,0.35,0.13,0.23
2014-05-31 15:50:00,2,421,77,0.20,2,2,0,2,304,728,112,386,77,77,0,77,0.10,0.40,0.09,0.15
2014-05-31 16:00:00,2,831,70,0.30,2,2,0,2,676,1135,140,815,67,77,5,67,0.05,0.70,0.20,0.20
2014-05-31 16:10:00,2,1441,42,0.15,2,2,0,2,481,3376,1024,1036,30,67,13,38,0.00,0.70,0.25,0.00
2014-05-31 16:20:00,2,2934,38,0.10,2,2,0,2,628,5193,1439,2600,20,67,15,32,0.00,0.70,0.22,0.00
2014-05-31 16:30:00,2,3112,20,0.00,2,2,0,2,2264,4056,615,2940,20,20,0,20,0.00,0.00,0.00,0.00
2014-05-31 16:40:00,2,1632,20,0.00,2,2,0,2,792,2486,568,1596,20,20,0,20,0.00,0.00,0.00,0.00
2014-05-31 16:50:00,2,1554,24,0.07,2,2,0,2,703,3325,826,1352,20,40,8,20,0.00,0.55,0.16,0.00
2014-05-31 17:00:00,2,739,73,0.35,2,2,0,2,636,910,96,700,40,77,11,77,0.20,0.50,0.11,0.35
2014-05-31 17:10:00,2,718,77,0.53,2,2,0,2,554,848,82,749,77,77,0,77,0.30,0.95,0.21,0.50
2014-05-31 17:20:00,2,1659,60,0.30,2,2,0,2,724,3583,932,1268,30,67,15,67,0.00,0.95,0.31,0.20
2014-05-31 17:30:00,2,1986,21,0.00,2,2,0,2,1163,3245,626,2116,20,30,3,20,0.00,0.00,0.00,0.00
2014-05-31 17:40:00,2,2074,20,0.00,2,2,0,2,1133,2819,581,2282,20,20,0,20,0.00,0.00,0.00,0.00
2014-05-31 17:50:00,2,3267,20,0.00,2,2,0,2,2058,4393,698,3194,20,20,0,20,0.00,0.00,0.00,0.00
2014-05-31 18:00:00,2,7480,20,0.00,2,2,0,2,5516,10741,1898,6391,20,20,0,20,0.00,0.00,0.00,0.00
2014-05-31 18:10:00,2,5910,20,0.00,2,2,0,2,4526,7796,930,5816,20,20,0,20,0.00,0.00,0.00,0.00
2014-05-31 18:20:00,2,5183,20,0.00,2,2,0,2,3588,6353,865,5163,20,20,0,20,0.00,0.00,0.00,0.00
2014-05-31 18:30:00,2,7089,10,0.00,2,2,0,2,6090,8583,736,7048,10,10,0,10,0.00,0.00,0.00,0.00
2014-05-31 18:40:00,2,10914,10,0.00,2,2,0,2,6647,20545,4123,8934,10,10,0,10,0.00,0.00,0.00,0.00
2014-05-31 18:50:00,2,8677,10,0.00,2,2,0,2,6611,9969,937,8886,10,10,0,10,0.00,0.00,0.00,0.00
2014-05-31 19:00:00,2,14238,8,0.00,2,2,0,2,10656,20937,3231,13184,0,10,4,10,0.00,0.00,0.00,0.00
2014-05-31 19:10:00,2,11909,0,0.00,2,2,0,2,6665,19958,4370,9692,0,0,0,0,0.00,0.00,0.00,0.00
2014-05-31 19:20:00,2,16576,0,0.00,2,2,0,2,9332,33951,9237,11622,0,0,0,0,0.00,0.00,0.00,0.00
2014-05-31 19:30:00,2,12609,0,0.00,2,2,0,2,10410,16787,1966,12152,0,0,0,0,0.00,0.00,0.00,0.00
2014-05-31 19:40:00,2,10670,0,0.00,2,2,0,2,5596,20730,4746,9684,0,0,0,0,0.00,0.00,0.00,0.00
2014-05-31 19:50:00,2,20956,0,0.00,2,2,0,2,12824,29842,5862,21521,0,0,0,0,0.00,0.00,0.00,0.00
2014-05-31 20:00:00,2,8922,0,0.00,2,2,0,2,7500,11520,1355,8514,0,0,0,0,0.00,0.00,0.00,0.00
2014-05-31 20:10:00,2,7428,10,0.00,2,2,0,2,6199,9263,940,7148,10,10,0,10,0.00,0.00,0.00,0.00
2014-05-31 20:20:00,2,9606,4,0.00,2,2,0,2,5566,15213,2761,9526,0,10,5,0,0.00,0.00,0.00,0.00
2014-05-31 20:30:00,2,9183,10,0.00,2,2,0,2,7106,13973,2438,8381,10,10,0,10,0.00,0.00,0.00,0.00
2014-05-31 20:40:00,2,7793,10,0.00,2,2,0,2,6112,9650,1171,7638,10,10,0,10,0.00,0.00,0.00,0.00
2014-05-31 20:50:00,2,10688,6,0.00,2,2,0,2,7734,17076,2595,9761,0,10,5,10,0.00,0.00,0.00,0.00
2014-05-31 21:00:00,2,6210,8,0.00,2,2,0,2,3465,12509,2556,5415,0,10,4,10,0.00,0.00,0.00,0.00
2014-05-31 21:10:00,2,6341,10,0.00,2,2,0,2,4172,8285,1309,5810,10,10,0,10,0.00,0.00,0.00,0.00
2014-05-31 21:20:00,2,6200,10,0.00,2,2,0,2,4955,7673,856,6235,10,10,0,10,0.00,0.00,0.00,0.00
2014-05-31 21:30:00,2,4192,10,0.00,2,2,0,2,2355,6606,1349,3920,10,10,0,10,0.00,0.00,0.00,0.00
2014-05-31 21:40:00,2,3421,10,0.00,2,2,0,2,2589,4676,665,3176,10,10,0,10,0.00,0.00,0.00,0.00
2014-05-31 21:50:00,2,3652,10,0.00,2,2,0,2,2599,4556,621,3824,10,10,0,10,0.00,0.00,0.00,0.00
2014-05-31 22:00:00,2,3582,10,0.00,2,2,0,2,2141,6121,1195,3408,10,10,0,10,0.00,0.00,0.00,0.00
2014-05-31 22:10:00,2,6722,10,0.00,2,2,0,2,3754,11278,2531,6256,10,10,0,10,0.00,0.00,0.00,0.00
2014-05-31 22:20:00,2,2163,10,0.00,2,2,0,2,1707,3564,521,1991,10,10,0,10,0.00,0.00,0.00,0.00
2014-05-31 22:30:00,2,2470,10,0.00,2,2,0,2,1193,3673,693,2614,10,10,0,10,0.00,0.00,0.00,0.00
2014-05-31 22:40:00,2,4862,10,0.00,2,2,0,2,2029,8652,2201,4207,10,10,0,10,0.00,0.00,0.00,0.00
2014-05-31 22:50:00,2,2710,10,0.00,2,2,0,2,1925,3674,606,2590,10,10,0,10,0.00,0.00,0.00,0.00
2014-05-31 23:00:00,2,3242,10,0.00,2,2,0,2,1967,6891,1603,2511,10,10,0,10,0.00,0.00,0.00,0.00
2014-05-31 23:10:00,2,9800,9,0.00,2,2,0,2,4138,28281,7695,6276,0,10,3,10,0.00,0.00,0.00,0.00
2014-05-31 23:20:00,2,11894,10,0.00,2,2,0,2,4234,42758,11937,6557,10,10,0,10,0.00,0.00,0.00,0.00
2014-05-31 23:30:00,2,7776,10,0.00,2,2,0,2,3318,16641,4636,5463,10,10,0,10,0.00,0.00,0.00,0.00
2014-05-31 23:40:00,2,6619,10,0.00,2,2,0,2,3350,13105,2814,5484,10,10,0,10,0.00,0.00,0.00,0.00
2014-05-31 23:50:00,2,11188,10,0.00,2,2,0,2,8246,16203,2714,10096,10,10,0,10,0.00,0.00,0.00,0.00
